TimeCDT,TemperatureF,Dew PointF,Humidity,Sea Level PressureIn,VisibilityMPH,Wind Direction,Wind SpeedMPH,Gust SpeedMPH,PrecipitationIn,Events,Conditions,WindDirDegrees,DateUTC
12:58 AM,73.9,63.5,70,30.03,10.0,ESE,13.8,-,N/A,,Overcast,110,2013-08-18 05:58:00
1:58 AM,72.3,63.5,74,30.03,10.0,ESE,11.5,-,N/A,,Clear,110,2013-08-18 06:58:00
2:58 AM,71.1,63.3,76,30.03,10.0,ESE,6.9,-,N/A,,Clear,110,2013-08-18 07:58:00
3:58 AM,69.3,63.3,81,30.03,10.0,ESE,8.1,-,N/A,,Clear,110,2013-08-18 08:58:00
4:58 AM,67.6,63.7,87,30.04,10.0,East,4.6,-,N/A,,Clear,90,2013-08-18 09:58:00
5:58 AM,65.8,63.5,92,30.04,10.0,East,5.8,-,N/A,,Clear,90,2013-08-18 10:58:00
6:58 AM,66.4,62.6,88,30.06,10.0,East,5.8,-,N/A,,Mostly Cloudy,90,2013-08-18 11:58:00
7:58 AM,67.6,62.1,82,30.07,10.0,ESE,8.1,-,N/A,,Scattered Clouds,110,2013-08-18 12:58:00
8:58 AM,71.8,61.5,70,30.09,10.0,ESE,12.7,-,N/A,,Mostly Cloudy,120,2013-08-18 13:58:00
9:58 AM,75.2,61.3,62,30.08,10.0,ESE,12.7,-,N/A,,Partly Cloudy,120,2013-08-18 14:58:00
10:58 AM,79.7,60.6,52,30.08,10.0,SE,9.2,-,N/A,,Partly Cloudy,140,2013-08-18 15:58:00
11:58 AM,83.8,61.0,46,30.07,10.0,SSE,13.8,-,N/A,,Clear,150,2013-08-18 16:58:00
12:58 PM,87.6,59.2,38,30.05,10.0,SSE,12.7,18.4,N/A,,Clear,160,2013-08-18 17:58:00
1:51 PM,89.6,59.0,36,30.07,10.0,SSE,13.8,20.7,N/A,,Clear,160,2013-08-18 18:51:00
1:58 PM,89.4,59.0,36,30.02,10.0,South,12.7,20.7,N/A,,Clear,170,2013-08-18 18:58:00
2:58 PM,91.0,58.5,33,29.99,10.0,SE,15.0,20.7,N/A,,Clear,130,2013-08-18 19:58:00
3:58 PM,91.6,59.7,34,29.99,10.0,SE,15.0,21.9,N/A,,Clear,140,2013-08-18 20:58:00
4:58 PM,91.6,59.2,34,29.98,10.0,SE,17.3,24.2,N/A,,Clear,140,2013-08-18 21:58:00
5:54 PM,89.6,59.0,36,30.01,10.0,South,12.7,23.0,N/A,,Clear,170,2013-08-18 22:54:00
5:58 PM,90.0,59.9,36,29.97,10.0,SE,13.8,20.7,N/A,,Clear,140,2013-08-18 22:58:00
6:58 PM,88.5,59.5,38,29.96,10.0,SE,17.3,-,N/A,,Clear,130,2013-08-18 23:58:00
7:58 PM,85.6,59.2,41,29.96,10.0,SE,10.4,-,N/A,,Clear,130,2013-08-19 00:58:00
8:58 PM,82.0,59.9,47,29.98,10.0,ESE,8.1,-,N/A,,Clear,120,2013-08-19 01:58:00
9:58 PM,78.4,61.2,55,30.00,10.0,ESE,6.9,-,N/A,,Clear,110,2013-08-19 02:58:00
10:58 PM,76.5,62.2,61,30.02,10.0,East,9.2,-,N/A,,Clear,100,2013-08-19 03:58:00
11:58 PM,75.0,62.8,66,30.02,10.0,ESE,9.2,-,N/A,,Clear,110,2013-08-19 04:58:00